Location: Eyeline Observatory
(43.2182°N, 78.8632°W)
Time: 05:17:05
(UTC-05:00)

Vanguard 3 - All Passes

Search period start: 23 February 2018 00:00
Search period end: 05 March 2018 00:00
Orbit: 508 x 3264 km, 33.3° (Epoch: 22 February)

Date Brightness Start Highest point End Pass type
(mag) Time Alt. Az. Time Alt. Az. Time Alt. Az.
23 Feb - 13:42:19 10° SSW 13:46:18 16° SSE 13:49:25 10° SE daylight
23 Feb - 15:53:40 10° SW 15:57:31 22° S 16:00:36 10° SE daylight
23 Feb - 18:05:56 10° SW 18:08:14 15° SSW 18:10:30 10° SSE daylight
24 Feb - 12:28:59 10° S 12:32:32 13° SSE 12:35:29 10° SE daylight
24 Feb - 14:39:23 10° SW 14:44:13 22° S 14:47:45 10° ESE daylight
24 Feb - 16:51:49 10° WSW 16:55:08 21° S 16:57:59 10° SE daylight
25 Feb - 13:24:56 10° SSW 13:30:40 21° S 13:34:45 10° ESE daylight
25 Feb - 15:37:26 10° WSW 15:41:59 25° S 15:45:22 10° SE daylight
25 Feb - 17:50:33 10° SW 17:52:38 14° SSW 17:54:38 10° SSE daylight
26 Feb - 12:10:39 10° SSW 12:16:49 18° SSE 12:21:20 10° ESE daylight
26 Feb - 14:22:41 10° SW 14:28:38 27° S 14:32:42 10° ESE daylight
26 Feb - 16:35:54 10° WSW 16:39:34 21° SSW 16:42:33 10° SE daylight
27 Feb - 10:57:07 10° S 11:02:39 15° SSE 11:07:01 10° SE daylight
27 Feb - 13:07:42 10° SW 13:15:01 26° S 13:19:50 10° ESE daylight
27 Feb - 15:21:06 10° WSW 15:26:25 28° S 15:30:08 10° SE daylight
27 Feb - 17:35:06 10° SW 17:36:59 13° SSW 17:38:44 10° S daylight
28 Feb - 09:47:01 10° SSE 09:48:09 10° SSE 09:49:14 10° SE daylight
28 Feb - 11:52:45 10° SSW 12:01:02 24° SSE 12:06:38 10° ESE daylight
28 Feb - 14:05:56 10° WSW 14:13:00 32° S 14:17:34 10° ESE daylight
28 Feb - 16:19:53 10° WSW 16:23:58 22° SSW 16:27:08 10° SE daylight
01 Mar - 10:38:18 10° SSW 10:46:43 20° SSE 10:52:47 10° ESE daylight
01 Mar - 12:50:28 10° SW 12:59:17 32° S 13:04:47 10° ESE daylight
01 Mar - 15:04:41 10° WSW 15:10:48 31° S 15:14:53 10° SE daylight
01 Mar - 17:19:36 10° SW 17:21:17 12° SSW 17:22:49 10° S daylight
02 Mar - 09:25:10 10° S 09:32:04 15° SSE 09:37:38 10° ESE daylight
02 Mar - 11:34:59 10° SW 11:45:10 29° SSE 11:51:40 10° ESE daylight
02 Mar - 13:49:06 10° WSW 13:57:19 36° S 14:02:22 10° ESE daylight
02 Mar - 16:03:44 10° WSW 16:08:19 22° SSW 16:11:42 10° SSE daylight
03 Mar - 10:19:54 10° SSW 10:30:40 25° SSE 10:38:01 10° ESE daylight
03 Mar - 12:33:13 10° SW 12:43:28 37° S 12:49:37 10° ESE daylight
03 Mar - 14:48:09 10° WSW 14:55:07 33° SSW 14:59:36 10° SE daylight
03 Mar - 17:04:06 10° SW 17:05:31 11° SSW 17:06:49 10° SSW daylight
04 Mar - 09:05:50 10° S 09:15:50 20° SSE 09:23:25 10° ESE daylight
04 Mar - 11:17:17 10° SW 11:29:11 35° SSE 11:36:32 10° ESE daylight
04 Mar - 13:32:12 10° WSW 13:41:34 40° S 13:47:08 10° ESE daylight
04 Mar - 15:47:30 10° WSW 15:52:36 22° SSW 15:56:15 10° SSE daylight
